Regional Weather Roundup
Issued by NWS

Home | Current Version | Previous Version | Graphics & Text | Print | Product List | Glossary On
Versions: 1 2 3 4 5 6 7 8 9 10 11 12 13 14 15 16 17 18 19 20 21 22 23 24 25 26 27 28 29 30 31 32 33 34 35 36 37 38 39 40 41 42 43 44 45 46 47 48 49 50
000
ASUS44 KMEG 210410
RWRTN
TENNESSEE HOURLY STATE WEATHER ROUNDUP
NATIONAL WEATHER SERVICE MEMPHIS TN
1100 PM CDT THU JUL 20 2017

TNZ002-004-019-021-049-052-054-088>092-210500-
WEST TENNESSEE

CITY           SKY/WX    TMP DP  RH WIND       PRES   REMARKS
MEMPHIS INTL   CLEAR     83  77  82 CALM      30.03S HX  92
JACKSON        MOCLDY    76  75  97 CALM      30.03S
SOMERVILLE       N/A     79  77  94 CALM      30.03R
COVINGTON      CLEAR     79  77  94 CALM      30.02S
UNION CITY     CLEAR     81  77  89 CALM      30.00F
BOLIVAR        CLEAR     75  73  94 CALM      30.03S
PARIS          CLEAR     75  75 100 CALM      30.02F
HUNTINGDON     CLEAR     79  77  94 CALM      30.02F
SELMER         CLEAR     79  75  89 CALM      30.04R
SAVANNAH       CLEAR     77  75  94 CALM      30.03R
$$

TNZ008-025-027-028-033-062-065-066-210500-
NORTH MIDDLE TENNESSEE

CITY           SKY/WX    TMP DP  RH WIND       PRES   REMARKS
NASHVILLE      PTCLDY    81  72  74 CALM      30.05S
PORTLAND         N/A     77  75  94 CALM      30.05S
CLARKSVILLE    CLEAR     76  74  93 CALM      30.03S
SMYRNA         CLEAR     78  73  84 CALM      30.06R
COOKEVILLE     CLEAR     75  75 100 CALM      30.08R FOG
GALLATIN       CLEAR     79  75  89 CALM      30.07S
CROSSVILLE     PTCLDY    73  71  93 CALM      30.15R FOG
$$

TNZ061-075-076-078-094-096-097-210500-
SOUTH MIDDLE TENNESSEE

CITY           SKY/WX    TMP DP  RH WIND       PRES   REMARKS
FAYETTEVILLE   CLEAR     79  73  83 CALM      30.07R
TULLAHOMA      CLEAR     77  73  88 CALM      30.10R
WINCHESTER     CLEAR     77  73  88 CALM      30.09R
MCMINNVILLE    CLEAR     79  79 100 CALM      30.09R
COLUMBIA       PTCLDY    77  77 100 CALM      30.03S
SHELBYVILLE    CLEAR     77  75  94 CALM      30.07R
$$

TNZ017-018-042-046-047-210500-
NORTHEAST TENNESSEE

CITY           SKY/WX    TMP DP  RH WIND       PRES   REMARKS
TRI CITIES     PTCLDY    74  69  85 CALM      30.11R
ELIZABETHTON   CLOUDY    70  68  94 CALM      30.12R
$$

TNZ012-013-036-069-073-074-210500-
CENTRAL EAST TENNESSEE

CITY           SKY/WX    TMP DP  RH WIND       PRES   REMARKS
KNOXVILLE      CLEAR     79  69  71 CALM      30.07R
OAK RIDGE      PTCLDY    78  73  84 CALM      30.09R
DOWNTOWN KNOXV CLEAR     75  73  94 CALM      30.07R
GATLINBURG     CLEAR     73  68  83 CALM      30.08S
MORRISTOWN     PTCLDY    75  70  83 CALM      30.09S
JACKSBORO        N/A     75  73  94 CALM      30.13R
$$

TNZ083-085-099-210500-
SOUTHEAST TENNESSEE

CITY           SKY/WX    TMP DP  RH WIND       PRES   REMARKS
CHATTANOOGA    MOCLDY    81  75  82 CALM      30.06S
$$

SKY/WX REPORTED AS FAIR MEANS FEW OR NO CLOUDS BELOW
12 THOUSAND FEET.





USA.gov is the U.S. government's official web portal to all federal, state and local government web resources and services.